This is the latest recevied weather packets stored in our database for station/object KO4FR. If no packets are shown the sender has not sent any weather packets the latest 10 day(s).
| Time | Temp. | Humidity | Pressure | Rain* | Wind** | Luminosity | Snow |
|---|---|---|---|---|---|---|---|
| 1778096408 | 20.56° C | 67% | 1010.1 hPa | 0 mm | - | - | - |
| 1778096108 | 20.56° C | 67% | 1010 hPa | 0 mm | - | - | - |
| 1778095808 | 20.56° C | 67% | 1010.3 hPa | 0 mm | - | - | - |
| 1778095508 | 20.56° C | 67% | 1010.7 hPa | 0 mm | - | - | - |
| 1778095208 | 20.56° C | 67% | 1011 hPa | 0 mm | - | - | - |
| 1778094908 | 20.56° C | 66% | 1011.3 hPa | 0 mm | - | - | - |
| 1778094608 | 20.56° C | 66% | 1011.6 hPa | 0 mm | - | - | - |
| 1778094308 | 20.56° C | 67% | 1011.8 hPa | 0 mm | - | - | - |
| 1778094008 | 20.56° C | 66% | 1012 hPa | 0 mm | - | - | - |
| 1778093708 | 20.56° C | 65% | 1012 hPa | 0 mm | - | - | - |
| 1778093408 | 20.56° C | 65% | 1012.1 hPa | 0 mm | - | - | - |
| 1778093107 | 20.56° C | 63% | 1012.2 hPa | 0 mm | - | - | - |
| 1778092808 | 20.56° C | 64% | 1012.2 hPa | 0 mm | - | - | - |
| 1778092507 | 20.56° C | 63% | 1012.3 hPa | 0 mm | - | - | - |
| 1778092207 | 20.56° C | 62% | 1012.4 hPa | 0 mm | - | - | - |
| 1778091907 | 20.56° C | 63% | 1012.6 hPa | 0 mm | - | - | - |
| 1778091607 | 20.56° C | 62% | 1012.9 hPa | 0 mm | - | - | - |
| 1778091308 | 20° C | 58% | 1012.9 hPa | 0 mm | - | - | - |
| 1778091007 | 20° C | 58% | 1013 hPa | 0 mm | - | - | - |
| 1778090707 | 20° C | 59% | 1013.3 hPa | 0 mm | - | - | - |
| 1778090407 | 19.44° C | 58% | 1013.3 hPa | 0 mm | - | - | - |
| 1778090107 | 19.44° C | 60% | 1013.6 hPa | 0 mm | - | - | - |
| 1778089808 | 19.44° C | 59% | 1013.5 hPa | 0 mm | - | - | - |
| 1778089507 | 19.44° C | 59% | 1013.4 hPa | 0 mm | - | - | - |
| 1778089207 | 19.44° C | 58% | 1013.4 hPa | 0 mm | - | - | - |
* Rain latest hour (hover to see other rain measurements)
** Current wind speed in m/s (hover to see current wind gust speed)